Simultaneous Nadir Overpasses (SNOs) Predictions

Prediction of SNOs between GOES-16 and AQUA Satellite Orbit:

Table of predicted SNOs for the next 14.0 days since TLE Epoch: 4/10/2020
Index Date Time (GOES-16) GOES-16 Lat,Lon AQUA Lat,Lon Distance(km) Time Diff (sec)
1 04/11/2020 06:29:52 -0.01, -75.20 -0.30, -73.90 148.54 80
2 04/11/2020 18:51:16 0.01, -75.21 -0.81, -79.09 441.16 80
3 04/13/2020 06:17:40 -0.01, -75.19 -0.90, -70.94 483.12 80
4 04/13/2020 18:39:04 0.01, -75.20 -0.21, -76.13 106.40 80
5 04/15/2020 18:29:33 0.01, -75.19 0.46, -73.18 229.24 80
6 04/16/2020 06:50:48 -0.01, -75.18 0.67, -78.33 357.94 80
7 04/18/2020 06:38:36 -0.01, -75.19 0.06, -75.37 21.41 80
8 04/20/2020 06:23:45 -0.00, -75.20 -0.61, -72.42 316.19 80
9 04/20/2020 18:45:09 0.00, -75.21 -0.50, -77.61 273.05 80
10 04/22/2020 18:35:37 0.01, -75.22 0.12, -74.65 65.09 80
11 04/24/2020 18:23:25 0.01, -75.25 0.74, -71.69 403.52 80




NCC Satellite Simultaneous Nadir Overpasses (SNOs) Prediction Service
